FW5122 Weather Reports


time (UTC)temp
C
wind
direction
speed
KPH
gust
KPH
rain 1hr
cm
rain 24hr
cm
rain mn
cm
humidity
%
barometer
mb
20260506103531 15 5 8.0 12.9 0.00 0.00 0.00 72 1011.8
20260506102831 15 343 8.0 12.9 0.00 0.00 0.00 72 1011.8
20260506102131 15 358 3.2 12.9 0.00 0.00 0.00 72 1011.4
20260506101431 15 359 8.0 12.9 0.00 0.00 0.00 72 1011.4
20260506100731 15 7 3.2 12.9 0.00 0.00 0.00 72 1011.1
20260506100032 15 356 8.0 12.9 0.00 0.00 0.00 72 1011.1
20260506095331 15 0 8.0 9.7 0.00 0.00 0.00 72 1011.1
20260506094631 15 357 8.0 9.7 0.00 0.00 0.00 72 1010.7
20260506093231 15 342 12.9 9.7 0.00 0.00 0.00 72 1011.1
20260506092531 15 6 8.0 9.7 0.00 0.00 0.00 72 1011.1
20260506091831 15 9 3.2 9.7 0.00 0.00 0.00 72 1011.1
20260506091131 15 0 8.0 9.7 0.00 0.00 0.00 72 1010.7
20260506085031 16 355 12.9 9.7 0.00 0.00 0.00 72 1010.7
20260506084331 16 3 3.2 9.7 0.00 0.00 0.00 72 1010.4
20260506083631 16 349 8.0 9.7 0.00 0.00 0.00 72 1010.4
20260506082932 16 3 3.2 9.7 0.00 0.00 0.00 72 1010.4
20260506082231 16 354 8.0 9.7 0.00 0.00 0.00 72 1010.1
20260506081531 16 356 8.0 9.7 0.00 0.00 0.00 72 1010.1
20260506080831 16 6 0.0 9.7 0.00 0.00 0.00 72 1010.1
20260506080131 16 1 8.0 9.7 0.00 0.00 0.00 72 1010.1
20260506073331 16 18 8.0 9.7 0.00 0.00 0.00 72 1010.4
20260506071931 17 348 8.0 9.7 0.00 0.00 0.00 73 1010.4
20260506071231 17 7 3.2 9.7 0.00 0.00 0.00 73 1010.4
20260506070531 17 347 8.0 9.7 0.00 0.00 0.00 72 1010.4
20260506062331 17 4 8.0 12.9 0.00 0.00 0.00 72 1010.1
20260506061631 17 350 8.0 12.9 0.00 0.00 0.00 72 1010.4
20260506060933 17 8 8.0 12.9 0.00 0.00 0.00 72 1010.1
20260506060231 17 0 8.0 12.9 0.00 0.00 0.00 72 1010.4
20260506051331 19 1 12.9 16.1 0.00 0.00 0.00 72 1009.7
20260506050631 19 0 8.0 16.1 0.00 0.00 0.00 72 1010.1
20260506044531 20 10 8.0 16.1 0.00 0.00 0.58 71 1010.1
20260506043831 20 342 8.0 16.1 0.00 0.00 0.58 71 1010.1
20260506043131 20 11 8.0 16.1 0.00 0.00 0.58 71 1010.1
20260506042431 21 17 8.0 12.9 0.00 0.00 0.58 71 1009.4
20260506041731 21 14 12.9 12.9 0.00 0.00 0.58 72 1009.7
20260506041031 21 9 3.2 12.9 0.00 0.00 0.58 71 1009.4
20260506035632 21 2 8.0 12.9 0.00 0.00 0.58 71 1009.4
20260506034930 21 357 8.0 12.9 0.00 0.00 0.58 71 1009.4
20260506034231 22 1 8.0 12.9 0.00 0.00 0.58 72 1009.1
20260506033533 22 356 8.0 12.9 0.00 0.00 0.58 72 1008.7
20260506032831 22 29 12.9 12.9 0.00 0.00 0.58 71 1008.7
20260506031431 22 12 12.9 12.9 0.00 0.00 0.58 70 1008.7
20260506030731 22 8 8.0 12.9 0.00 0.00 0.58 70 1008.7
20260506030031 22 341 8.0 9.7 0.00 0.00 0.58 70 1008.7
20260506025331 22 349 3.2 9.7 0.00 0.00 0.58 71 1008.4
20260506024631 22 4 3.2 9.7 0.00 0.00 0.58 71 1008.0
20260506023931 22 353 12.9 9.7 0.00 0.00 0.58 71 1008.0
20260506023230 22 0 8.0 9.7 0.00 0.00 0.58 72 1007.4
20260506022531 22 3 3.2 9.7 0.00 0.00 0.58 72 1007.4
20260506021831 22 8 0.0 9.7 0.00 0.00 0.58 73 1007.0
20260506021130 22 8 0.0 9.7 0.00 0.00 0.58 73 1007.0
20260506020430 22 4 8.0 9.7 0.00 0.00 0.58 74 1007.0
20260506015735 22 3 0.0 6.4 0.00 0.00 0.58 76 1007.0
20260506015030 22 6 3.2 6.4 0.00 0.00 0.58 76 1007.0
20260506014331 22 8 8.0 6.4 0.00 0.00 0.58 78 1007.0
20260506013630 22 6 3.2 6.4 0.00 0.00 0.58 79 1006.3
20260506012931 22 5 0.0 6.4 0.00 0.00 0.58 79 1006.3
20260506011530 22 4 0.0 6.4 0.00 0.00 0.58 80 1006.7
20260506010830 22 4 0.0 6.4 0.00 0.00 0.58 80 1006.3
20260506010130 22 8 0.0 6.4 0.00 0.00 0.58 79 1006.0
20260506005430 22 5 0.0 9.7 0.00 0.00 0.58 78 1005.7
20260506004030 23 8 0.0 12.9 0.00 0.00 0.58 77 1006.0
20260506003330 23 2 0.0 12.9 0.00 0.00 0.58 76 1006.0
20260506001930 25 10 0.0 19.3 0.00 0.00 0.56 71 1006.0
20260506000530 27 13 0.0 22.5 0.00 0.00 0.46 64 1006.0
20260505235831 28 5 3.2 22.5 0.00 0.00 0.05 62 1005.3
20260505235133 29 86 17.7 22.5 0.00 0.00 0.00 65 1004.7
20260505234433 29 19 3.2 22.5 0.00 0.00 0.00 64 1005.0
20260505232333 30 25 12.9 22.5 0.00 0.00 0.00 62 1005.0
20260505231633 30 352 12.9 22.5 0.00 0.00 0.00 61 1004.7
20260505230933 31 24 17.7 22.5 0.00 0.00 0.00 61 1004.7
20260505230233 31 55 8.0 16.1 0.00 0.00 0.00 60 1004.7
20260505225533 31 32 12.9 16.1 0.00 0.00 0.00 60 1004.3
20260505224833 31 0 12.9 16.1 0.00 0.00 0.00 59 1004.7
20260505224133 31 18 12.9 12.9 0.00 0.00 0.00 59 1004.3
20260505223433 31 15 0.0 12.9 0.00 0.00 0.00 57 1004.3
20260505222733 32 10 8.0 12.9 0.00 0.00 0.00 57 1004.3
20260505222033 32 5 8.0 12.9 0.00 0.00 0.00 56 1004.3
20260505221333 32 1 8.0 12.9 0.00 0.00 0.00 56 1004.3
20260505220633 32 11 0.0 12.9 0.00 0.00 0.00 55 1004.3
20260505215933 32 26 3.2 12.9 0.00 0.00 0.00 55 1004.3
20260505215233 32 20 12.9 12.9 0.00 0.00 0.00 54 1004.3
20260505214533 32 8 8.0 16.1 0.00 0.00 0.00 54 1004.3
20260505213833 32 6 3.2 16.1 0.00 0.00 0.00 54 1004.3
20260505213133 32 13 3.2 16.1 0.00 0.00 0.00 54 1004.7
20260505212433 33 46 8.0 16.1 0.00 0.00 0.00 54 1004.7
20260505211033 32 7 8.0 27.4 0.00 0.00 0.00 55 1004.7
20260505210333 32 346 8.0 27.4 0.00 0.00 0.00 55 1004.7
20260505205634 32 355 3.2 27.4 0.00 0.00 0.00 56 1005.0
20260505204933 32 31 8.0 27.4 0.00 0.00 0.00 55 1005.0
20260505203533 32 3 3.2 27.4 0.00 0.00 0.00 55 1005.0
20260505202833 32 3 8.0 27.4 0.00 0.00 0.00 57 1005.3
20260505202133 32 8 8.0 27.4 0.00 0.00 0.00 57 1005.3
20260505201433 32 27 8.0 27.4 0.00 0.00 0.00 59 1005.3
20260505200033 31 9 0.0 27.4 0.00 0.00 0.00 59 1005.7
20260505195333 31 58 8.0 27.4 0.00 0.00 0.00 60 1005.7
20260505194633 31 18 8.0 27.4 0.00 0.00 0.00 62 1005.3
20260505193933 31 69 8.0 27.4 0.00 0.00 0.00 62 1005.7
20260505193232 31 294 8.0 27.4 0.00 0.00 0.00 62 1005.7
20260505192533 31 6 8.0 27.4 0.00 0.00 0.00 63 1005.7
20260505191833 30 6 8.0 27.4 0.00 0.00 0.00 63 1005.7
20260505191132 30 8 8.0 27.4 0.00 0.00 0.00 64 1005.3
20260505190433 30 98 17.7 27.4 0.00 0.00 0.00 64 1005.7
20260505185732 30 4 12.9 22.5 0.00 0.00 0.00 65 1006.0
20260505185033 29 17 8.0 22.5 0.00 0.00 0.00 66 1006.0
20260505184333 28 12 3.2 22.5 0.00 0.00 0.00 66 1006.0
20260505183632 28 13 8.0 22.5 0.00 0.00 0.00 66 1006.0
20260505182933 28 106 17.7 22.5 0.00 0.00 0.00 66 1006.0
20260505182232 28 9 0.0 22.5 0.00 0.00 0.00 67 1006.0
20260505181532 28 16 8.0 22.5 0.00 0.00 0.00 67 1006.0
20260505180833 28 10 8.0 22.5 0.00 0.00 0.00 67 1006.0
20260505180133 28 13 0.0 22.5 0.00 0.00 0.00 67 1006.3
20260505175433 28 331 8.0 22.5 0.00 0.00 0.00 67 1006.3
20260505174732 28 332 22.5 22.5 0.00 0.00 0.00 67 1006.0
20260505174033 28 80 12.9 22.5 0.00 0.00 0.00 67 1006.3
20260505173332 28 30 8.0 22.5 0.00 0.00 0.00 68 1006.0
20260505172632 28 3 8.0 22.5 0.00 0.00 0.00 67 1006.0
20260505171932 28 24 3.2 19.3 0.00 0.00 0.00 67 1006.3
20260505171232 28 11 3.2 19.3 0.00 0.00 0.00 68 1006.3
20260505170533 28 356 12.9 19.3 0.00 0.00 0.00 68 1006.0
20260505165833 28 39 8.0 30.6 0.00 0.00 0.00 69 1006.3
20260505165133 27 10 8.0 30.6 0.00 0.00 0.00 70 1006.3
20260505164433 27 29 8.0 30.6 0.00 0.00 0.00 70 1006.3
20260505163733 27 358 12.9 30.6 0.00 0.00 0.00 70 1006.3
20260505163033 27 73 8.0 30.6 0.00 0.00 0.00 70 1006.0
20260505160932 27 358 12.9 22.5 0.00 0.00 0.00 71 1006.0
20260505152733 26 358 12.9 22.5 0.00 0.00 0.00 74 1006.0
20260505152032 25 355 12.9 22.5 0.00 0.00 0.00 75 1006.3
20260505151333 25 0 8.0 22.5 0.00 0.00 0.00 75 1006.0
20260505150634 25 74 12.9 22.5 0.00 0.00 0.00 75 1006.3
20260505140332 23 39 8.0 16.1 0.00 0.00 0.00 79 1006.3
20260505124832 22 0 8.0 27.4 0.00 0.00 0.00 80 1005.7
20260505124132 21 354 12.9 27.4 0.00 0.00 0.00 80 1005.7
20260505122733 21 13 3.2 27.4 0.00 0.00 0.00 80 1005.0
20260505122032 21 15 8.0 27.4 0.00 0.00 0.00 81 1005.0
20260505121333 21 16 3.2 27.4 0.00 0.00 0.00 80 1005.3
20260505120632 21 8 3.2 27.4 0.00 0.00 0.00 80 1005.3
20260505115232 21 340 12.9 27.4 0.00 0.00 0.00 80 1005.0
20260505114532 21 18 27.4 27.4 0.00 0.00 0.00 80 1005.0
20260505113831 21 355 3.2 27.4 0.00 0.00 0.00 80 1005.0
20260505113132 21 3 8.0 22.5 0.00 0.00 0.00 80 1005.0
20260505112432 21 26 8.0 22.5 0.00 0.00 0.00 80 1005.0
20260505111732 21 24 3.2 22.5 0.00 0.00 0.00 80 1005.0
20260505111032 21 9 8.0 22.5 0.00 0.00 0.00 80 1005.0
20260505110332 21 13 12.9 22.5 0.00 0.00 0.00 79 1005.0